ASA687 KDEN-PHOG

Flight info

Callsign ASA687
Flight time 6h 52m
Altitude 40000
Route ZIMMR4 CHNGY EKR J84 DTA TATOO OAK ALANN GITLE DIALO R576 DENNS LNDHY1
Aircraft B789/H-SDE1E2E3FGHIJ2J3J4J5M1RWXY/LB1D1

Departure

Time 2026-04-23 04:00
Airport Denver International Airport (KDEN)

Arrival

Time 2026-04-23 10:52
Airport Kahului International Airport (PHOG)
Time Latitude Longitude Altitude Speed Heading
2026-04-23 03:25 39.85806 -104.67285 5384 ft 0 kts 359°
2026-04-23 03:46 39.85792 -104.67285 5383 ft 3 kts 359°
2026-04-23 03:46 39.85773 -104.67285 5383 ft 3 kts 359°
2026-04-23 03:47 39.85767 -104.67285 5381 ft 3 kts
2026-04-23 03:47 39.85748 -104.67287 5382 ft 3 kts
2026-04-23 03:47 39.85731 -104.67289 5381 ft 3 kts
2026-04-23 03:47 39.85713 -104.67291 5384 ft 3 kts
2026-04-23 03:48 39.85710 -104.67291 5386 ft 0 kts
2026-04-23 03:53 39.85712 -104.67290 5392 ft 1 kts
2026-04-23 03:53 39.85716 -104.67276 5386 ft 2 kts 73°
2026-04-23 03:53 39.85700 -104.67250 5381 ft 7 kts 131°
2026-04-23 03:53 39.85664 -104.67168 5387 ft 14 kts 101°
2026-04-23 03:54 39.85662 -104.67009 5384 ft 21 kts 91°
2026-04-23 03:54 39.85660 -104.66790 5392 ft 25 kts 91°
2026-04-23 03:54 39.85666 -104.66569 5389 ft 23 kts 77°
2026-04-23 03:54 39.85678 -104.66374 5388 ft 19 kts 90°
2026-04-23 03:55 39.85692 -104.66271 5388 ft 10 kts 56°
2026-04-23 03:55 39.85775 -104.66236 5388 ft 18 kts
2026-04-23 03:55 39.85938 -104.66243 5392 ft 28 kts
2026-04-23 03:55 39.86146 -104.66233 5387 ft 30 kts
2026-04-23 03:56 39.86368 -104.66229 5382 ft 34 kts
2026-04-23 03:56 39.86492 -104.66173 5389 ft 17 kts 64°
2026-04-23 03:56 39.86498 -104.65985 5383 ft 26 kts 90°
2026-04-23 03:56 39.86496 -104.65724 5370 ft 31 kts 91°
2026-04-23 03:57 39.86493 -104.65438 5363 ft 32 kts 90°
2026-04-23 03:57 39.86492 -104.65144 5358 ft 33 kts 90°
2026-04-23 03:57 39.86492 -104.64865 5357 ft 29 kts 90°
2026-04-23 03:57 39.86490 -104.64596 5350 ft 30 kts 91°
2026-04-23 03:58 39.86487 -104.64320 5343 ft 31 kts 90°
2026-04-23 03:58 39.86460 -104.64151 5342 ft 13 kts 142°
2026-04-23 03:58 39.86407 -104.64135 5342 ft 0 kts 177°
2026-04-23 03:59 39.86386 -104.64134 5342 ft 17 kts 179°
2026-04-23 03:59 39.86049 -104.64140 5351 ft 79 kts 181°
2026-04-23 03:59 39.85305 -104.64147 5355 ft 135 kts 180°
2026-04-23 03:59 39.84212 -104.64159 5375 ft 177 kts 181°
2026-04-23 04:00 39.82985 -104.64109 5952 ft 176 kts 183°
2026-04-23 04:00 39.81715 -104.64142 6323 ft 183 kts 193°
2026-04-23 04:00 39.80444 -104.64465 6768 ft 196 kts 191°
2026-04-23 04:00 39.79041 -104.64535 7262 ft 205 kts 200°
2026-04-23 04:01 39.77965 -104.65645 7734 ft 203 kts 246°
2026-04-23 04:01 39.77873 -104.67469 8294 ft 215 kts 285°
2026-04-23 04:01 39.78608 -104.69200 8875 ft 228 kts 299°
2026-04-23 04:01 39.79584 -104.70890 9482 ft 239 kts 304°
2026-04-23 04:02 39.80648 -104.72631 10008 ft 251 kts 304°
2026-04-23 04:02 39.81845 -104.74480 10071 ft 285 kts 309°
2026-04-23 04:02 39.83318 -104.76466 10038 ft 326 kts 310°
2026-04-23 04:02 39.84989 -104.78662 10054 ft 363 kts 311°
2026-04-23 04:03 39.86840 -104.81086 10277 ft 378 kts 311°
2026-04-23 04:03 39.88665 -104.83316 11102 ft 340 kts 313°
2026-04-23 04:03 39.90279 -104.85313 12002 ft 302 kts 309°
2026-04-23 04:03 39.91582 -104.87314 12905 ft 282 kts 300°
2026-04-23 04:04 39.92640 -104.89422 13850 ft 271 kts 291°
2026-04-23 04:04 39.93213 -104.91671 14767 ft 257 kts 275°
2026-04-23 04:04 39.93301 -104.93955 15456 ft 253 kts 266°
2026-04-23 04:04 39.93336 -104.96247 16150 ft 254 kts 268°
2026-04-23 04:05 39.93398 -104.98598 16490 ft 269 kts 268°
2026-04-23 04:05 39.93461 -105.01137 16789 ft 286 kts 268°
2026-04-23 04:05 39.93523 -105.03773 17320 ft 296 kts 268°
2026-04-23 04:05 39.93584 -105.06496 17795 ft 307 kts 267°
2026-04-23 04:06 39.93647 -105.09325 18230 ft 317 kts 267°
2026-04-23 04:06 39.93712 -105.12235 18657 ft 326 kts 267°
2026-04-23 04:06 39.93779 -105.15238 19072 ft 335 kts 267°
2026-04-23 04:06 39.93846 -105.18315 19495 ft 344 kts 267°
2026-04-23 04:07 39.93914 -105.21473 19915 ft 353 kts 268°
2026-04-23 04:07 39.94128 -105.24707 20301 ft 363 kts 271°
2026-04-23 04:07 39.94390 -105.27971 20697 ft 371 kts 271°
2026-04-23 04:07 39.94653 -105.31346 21142 ft 378 kts 271°
2026-04-23 04:08 39.94919 -105.34778 21671 ft 382 kts 271°
2026-04-23 04:08 39.95190 -105.38242 22195 ft 386 kts 271°
2026-04-23 04:08 39.95464 -105.41749 22719 ft 390 kts 271°
2026-04-23 04:08 39.95743 -105.45289 23240 ft 393 kts 271°
2026-04-23 04:09 39.96023 -105.48849 23667 ft 396 kts 271°
2026-04-23 04:09 39.96303 -105.52442 24133 ft 398 kts 270°
2026-04-23 04:09 39.96582 -105.56044 24563 ft 400 kts 270°
2026-04-23 04:09 39.96859 -105.59665 25008 ft 402 kts 270°
2026-04-23 04:10 39.97136 -105.63305 25448 ft 404 kts 270°
2026-04-23 04:10 39.97395 -105.66953 26074 ft 403 kts 268°
2026-04-23 04:10 39.97567 -105.70544 26569 ft 402 kts 268°
2026-04-23 04:10 39.97758 -105.74183 27083 ft 402 kts 268°
2026-04-23 04:11 39.97947 -105.77824 27561 ft 402 kts 268°
2026-04-23 04:11 39.98128 -105.81465 28079 ft 402 kts 267°
2026-04-23 04:11 39.98306 -105.85100 28561 ft 402 kts 267°
2026-04-23 04:11 39.98487 -105.88733 29064 ft 401 kts 267°
2026-04-23 04:12 39.98667 -105.92367 29571 ft 400 kts 267°
2026-04-23 04:12 39.98845 -105.95985 30074 ft 398 kts 267°
2026-04-23 04:12 39.99019 -105.99587 30531 ft 397 kts 267°
2026-04-23 04:12 39.99192 -106.03167 31052 ft 395 kts 268°
2026-04-23 04:13 39.99364 -106.06724 31514 ft 393 kts 268°
2026-04-23 04:13 39.99532 -106.10279 31874 ft 394 kts 268°
2026-04-23 04:13 39.99699 -106.13849 32225 ft 395 kts 268°
2026-04-23 04:13 39.99868 -106.17440 32419 ft 399 kts 268°
2026-04-23 04:14 40.00037 -106.21019 32688 ft 401 kts 268°
2026-04-23 04:14 40.00206 -106.24659 32889 ft 403 kts 268°
2026-04-23 04:14 40.00375 -106.28320 33137 ft 405 kts 268°
2026-04-23 04:14 40.00543 -106.31994 33410 ft 406 kts 268°
2026-04-23 04:15 40.00711 -106.35679 33731 ft 408 kts 268°
2026-04-23 04:15 40.00879 -106.39391 34006 ft 406 kts 268°
2026-04-23 04:15 40.01203 -106.46500 35288 ft 385 kts 268°
2026-04-23 04:16 40.01352 -106.50004 35455 ft 382 kts 268°
2026-04-23 04:16 40.01503 -106.53368 36519 ft 363 kts 269°
2026-04-23 04:16 40.01646 -106.56692 36120 ft 379 kts 268°
2026-04-23 04:16 40.01792 -106.60279 35104 ft 406 kts 269°
2026-04-23 04:17 40.01949 -106.63860 34745 ft 412 kts 268°
2026-04-23 04:17 40.02111 -106.67645 34164 ft 423 kts 268°
2026-04-23 04:17 40.02278 -106.71450 34054 ft 415 kts 268°
2026-04-23 04:18 40.02585 -106.78864 34397 ft 415 kts 268°
2026-04-23 04:18 40.02913 -106.86519 33754 ft 442 kts 274°
2026-04-23 04:18 40.03106 -106.90552 33084 ft 466 kts 272°
2026-04-23 04:19 40.03234 -106.94779 33593 ft 457 kts 272°
2026-04-23 04:19 40.03371 -106.98890 34269 ft 450 kts 273°
2026-04-23 04:19 40.03556 -107.02953 34773 ft 446 kts 273°
2026-04-23 04:19 40.03733 -107.06981 35206 ft 443 kts 273°
2026-04-23 04:20 40.03875 -107.10859 35819 ft 439 kts 272°
2026-04-23 04:20 40.04021 -107.14758 36358 ft 417 kts 269°
2026-04-23 04:20 40.04163 -107.18465 36846 ft 403 kts 269°
2026-04-23 04:20 40.04302 -107.22094 37332 ft 398 kts 269°
2026-04-23 04:21 40.04435 -107.25677 37812 ft 393 kts 269°
2026-04-23 04:21 40.04567 -107.29220 38208 ft 389 kts 269°
2026-04-23 04:21 40.04697 -107.32719 38577 ft 383 kts 269°
2026-04-23 04:21 40.04824 -107.36163 38882 ft 377 kts 269°
2026-04-23 04:22 40.04946 -107.39502 39176 ft 370 kts 269°
2026-04-23 04:22 40.05065 -107.42823 39459 ft 364 kts 269°
2026-04-23 04:22 40.05182 -107.46112 39546 ft 363 kts 269°
2026-04-23 04:22 40.05298 -107.49425 39413 ft 368 kts 269°
2026-04-23 04:23 40.05416 -107.52798 39239 ft 375 kts 269°
2026-04-23 04:23 40.05617 -107.58462 39404 ft 372 kts 269°
2026-04-23 04:23 40.05733 -107.61809 39642 ft 366 kts 269°
2026-04-23 04:24 40.05846 -107.65125 39740 ft 366 kts 269°
2026-04-23 04:24 40.05957 -107.68469 39619 ft 371 kts 269°
2026-04-23 04:24 40.06063 -107.71645 39479 ft 377 kts 269°
2026-04-23 04:25 40.06294 -107.78489 39689 ft 373 kts 269°
2026-04-23 04:25 40.06404 -107.81850 40083 ft 370 kts 269°
2026-04-23 04:25 40.06511 -107.85228 39985 ft 374 kts 269°
2026-04-23 04:26 40.06664 -107.92062 39965 ft 375 kts 262°
2026-04-23 04:26 40.05826 -107.98768 40052 ft 373 kts 258°
2026-04-23 04:27 40.04852 -108.05442 40035 ft 376 kts 258°
2026-04-23 04:27 40.03862 -108.12154 39970 ft 380 kts 258°
2026-04-23 04:28 40.02343 -108.22421 39901 ft 387 kts 258°
2026-04-23 04:28 40.01310 -108.29368 39858 ft 392 kts 258°
2026-04-23 04:29 40.00279 -108.36268 39827 ft 397 kts 258°
2026-04-23 04:29 39.99211 -108.43383 39831 ft 403 kts 258°
2026-04-23 04:30 39.98131 -108.50553 39825 ft 408 kts 258°
2026-04-23 04:30 39.97025 -108.57858 39825 ft 414 kts 258°
2026-04-23 04:31 39.95898 -108.65263 39827 ft 419 kts 258°
2026-04-23 04:31 39.94751 -108.72781 39832 ft 426 kts 258°
2026-04-23 04:32 39.93580 -108.80409 39824 ft 432 kts 258°
2026-04-23 04:32 39.92389 -108.88139 39824 ft 438 kts 258°
2026-04-23 04:33 39.91174 -108.95981 39829 ft 445 kts 258°
2026-04-23 04:33 39.89944 -109.03887 39824 ft 450 kts 258°
2026-04-23 04:34 39.88685 -109.11933 39819 ft 457 kts 258°
2026-04-23 04:34 39.87408 -109.20067 39822 ft 458 kts 258°
2026-04-23 04:35 39.86126 -109.28182 39833 ft 457 kts 258°
2026-04-23 04:35 39.84841 -109.36286 39834 ft 457 kts 258°
2026-04-23 04:36 39.83558 -109.44335 39838 ft 457 kts 258°
2026-04-23 04:36 39.82259 -109.52448 39836 ft 457 kts 258°
2026-04-23 04:37 39.80955 -109.60549 39847 ft 458 kts 258°
2026-04-23 04:37 39.79645 -109.68652 39854 ft 458 kts 258°
2026-04-23 04:38 39.78329 -109.76755 39857 ft 457 kts 258°
2026-04-23 04:38 39.77040 -109.84654 39858 ft 455 kts 258°
2026-04-23 04:39 39.75728 -109.92663 39850 ft 452 kts 258°
2026-04-23 04:39 39.74413 -110.00651 39866 ft 452 kts 258°
2026-04-23 04:40 39.73089 -110.08653 39889 ft 453 kts 258°
2026-04-23 04:40 39.71761 -110.16648 39897 ft 452 kts 258°
2026-04-23 04:41 39.70433 -110.24604 39907 ft 450 kts 258°
2026-04-23 04:41 39.69101 -110.32551 39907 ft 450 kts 258°
2026-04-23 04:42 39.67772 -110.40441 39918 ft 450 kts 258°
2026-04-23 04:42 39.66427 -110.48392 39926 ft 451 kts 258°
2026-04-23 04:43 39.65077 -110.56344 39928 ft 450 kts 258°
2026-04-23 04:43 39.63723 -110.64279 40017 ft 450 kts 258°
2026-04-23 04:44 39.62365 -110.72202 40012 ft 449 kts 258°
2026-04-23 04:44 39.61014 -110.80053 40010 ft 449 kts 258°
2026-04-23 04:45 39.59651 -110.87935 40016 ft 446 kts 258°
2026-04-23 04:45 39.58288 -110.95788 40002 ft 447 kts 257°
2026-04-23 04:46 39.56914 -111.03667 39998 ft 448 kts 257°
2026-04-23 04:46 39.55536 -111.11540 39985 ft 448 kts 257°
2026-04-23 04:47 39.54149 -111.19429 39971 ft 451 kts 257°
2026-04-23 04:47 39.52747 -111.27367 39977 ft 457 kts 257°
2026-04-23 04:48 39.51316 -111.35436 39990 ft 460 kts 257°
2026-04-23 04:48 39.49877 -111.43514 39986 ft 460 kts 257°
2026-04-23 04:49 39.48435 -111.51578 39988 ft 459 kts 257°
2026-04-23 04:49 39.46992 -111.59609 39977 ft 457 kts 257°
2026-04-23 04:50 39.45548 -111.67613 39972 ft 457 kts 257°
2026-04-23 04:50 39.44096 -111.75629 39975 ft 458 kts 257°
2026-04-23 04:51 39.42645 -111.83603 39979 ft 459 kts 257°
2026-04-23 04:51 39.41172 -111.91666 39981 ft 460 kts 257°
2026-04-23 04:52 39.39692 -111.99735 39981 ft 461 kts 257°
2026-04-23 04:52 39.38208 -112.07790 39978 ft 461 kts 257°
2026-04-23 04:53 39.36726 -112.15801 39974 ft 460 kts 257°
2026-04-23 04:53 39.35236 -112.23821 39974 ft 457 kts 257°
2026-04-23 04:54 39.33748 -112.31805 39965 ft 456 kts 257°
2026-04-23 04:54 39.32259 -112.39753 39965 ft 457 kts 257°
2026-04-23 04:55 39.30754 -112.47756 39970 ft 457 kts 257°
2026-04-23 04:55 39.29284 -112.55672 39967 ft 451 kts 258°
2026-04-23 04:56 39.27882 -112.63512 39964 ft 451 kts 257°
2026-04-23 04:56 39.26429 -112.71401 39966 ft 452 kts 257°
2026-04-23 04:57 39.24986 -112.79305 39972 ft 452 kts 257°
2026-04-23 04:57 39.23533 -112.87182 39978 ft 450 kts 257°
2026-04-23 04:58 39.22086 -112.95018 39975 ft 449 kts 257°
2026-04-23 04:58 39.20630 -113.02857 39984 ft 450 kts 257°
2026-04-23 04:59 39.19168 -113.10711 39986 ft 451 kts 257°
2026-04-23 04:59 39.17701 -113.18547 39988 ft 451 kts 257°
2026-04-23 05:00 39.16222 -113.26425 39995 ft 451 kts 257°
2026-04-23 05:00 39.14748 -113.34242 39996 ft 451 kts 257°
2026-04-23 05:01 39.13258 -113.42109 40018 ft 452 kts 257°
2026-04-23 05:01 39.11755 -113.50016 40008 ft 457 kts 257°
2026-04-23 05:02 39.10237 -113.57973 40014 ft 458 kts 256°
2026-04-23 05:02 39.08713 -113.65926 40007 ft 456 kts 256°
2026-04-23 05:03 39.07189 -113.73850 40003 ft 455 kts 256°
2026-04-23 05:03 39.05675 -113.81685 40000 ft 454 kts 256°
2026-04-23 05:04 39.04148 -113.89562 40007 ft 453 kts 256°
2026-04-23 05:04 39.02614 -113.97443 40006 ft 454 kts 256°
2026-04-23 05:05 39.01072 -114.05337 40012 ft 455 kts 256°
2026-04-23 05:05 38.99519 -114.13253 40018 ft 457 kts 256°
2026-04-23 05:06 38.97958 -114.21182 40027 ft 457 kts 256°
2026-04-23 05:06 38.96403 -114.29049 40032 ft 456 kts 256°
2026-04-23 05:07 38.94834 -114.36957 40027 ft 457 kts 256°
2026-04-23 05:07 38.93256 -114.44874 40021 ft 457 kts 256°
2026-04-23 05:08 38.91674 -114.52790 40033 ft 457 kts 256°
2026-04-23 05:08 38.90098 -114.60641 40029 ft 457 kts 256°
2026-04-23 05:09 38.88506 -114.68540 40033 ft 456 kts 256°
2026-04-23 05:09 38.86911 -114.76425 40032 ft 456 kts 256°
2026-04-23 05:10 38.85312 -114.84306 40029 ft 456 kts 256°
2026-04-23 05:10 38.83979 -114.90848 40026 ft 455 kts 256°
2026-04-23 05:11 38.82106 -115.00009 40040 ft 457 kts 256°
2026-04-23 05:11 38.80483 -115.07912 40034 ft 459 kts 256°
2026-04-23 05:12 38.79125 -115.14503 40040 ft 460 kts 256°
2026-04-23 05:12 38.77482 -115.22453 40045 ft 460 kts 256°
2026-04-23 05:13 38.75844 -115.30351 40050 ft 458 kts 256°
2026-04-23 05:14 38.73377 -115.42183 40047 ft 459 kts 256°
2026-04-23 05:14 38.71728 -115.50058 40053 ft 461 kts 256°
2026-04-23 05:15 38.70059 -115.57997 40060 ft 461 kts 256°
2026-04-23 05:15 38.68391 -115.65904 40063 ft 459 kts 256°
2026-04-23 05:16 38.66722 -115.73791 40053 ft 457 kts 256°
2026-04-23 05:16 38.65060 -115.81612 40053 ft 458 kts 256°
2026-04-23 05:17 38.63374 -115.89520 40064 ft 460 kts 256°
2026-04-23 05:17 38.61684 -115.97410 40066 ft 459 kts 256°
2026-04-23 05:18 38.59998 -116.05261 40075 ft 457 kts 256°
2026-04-23 05:18 38.58323 -116.13031 40070 ft 456 kts 256°
2026-04-23 05:19 38.56628 -116.20868 40074 ft 456 kts 256°
2026-04-23 05:19 38.54939 -116.28648 40092 ft 456 kts 256°
2026-04-23 05:20 38.53245 -116.36423 40085 ft 454 kts 256°
2026-04-23 05:20 38.51540 -116.44223 40096 ft 454 kts 256°
2026-04-23 05:21 38.49845 -116.51952 40100 ft 455 kts 256°
2026-04-23 05:21 38.48135 -116.59714 40107 ft 453 kts 256°
2026-04-23 05:22 38.46433 -116.67420 40109 ft 449 kts 256°
2026-04-23 05:22 38.44730 -116.75102 40116 ft 451 kts 256°
2026-04-23 05:23 38.43022 -116.82781 40118 ft 452 kts 256°
2026-04-23 05:23 38.41304 -116.90478 40116 ft 449 kts 256°
2026-04-23 05:24 38.39594 -116.98117 40114 ft 446 kts 256°
2026-04-23 05:24 38.37883 -117.05731 40116 ft 446 kts 256°
2026-04-23 05:25 38.36167 -117.13341 40122 ft 446 kts 256°
2026-04-23 05:25 38.34458 -117.20895 40124 ft 446 kts 256°
2026-04-23 05:26 38.32830 -117.28511 40131 ft 444 kts 262°
2026-04-23 05:26 38.32005 -117.36298 40132 ft 444 kts 264°
2026-04-23 05:27 38.31216 -117.44117 40131 ft 444 kts 264°
2026-04-23 05:27 38.30422 -117.51918 40133 ft 442 kts 264°
2026-04-23 05:28 38.29628 -117.59671 40136 ft 441 kts 264°
2026-04-23 05:28 38.28841 -117.67306 40133 ft 441 kts 264°
2026-04-23 05:29 38.28036 -117.75051 40134 ft 442 kts 264°
2026-04-23 05:29 38.27225 -117.82817 40139 ft 443 kts 264°
2026-04-23 05:30 38.26408 -117.90586 40139 ft 443 kts 264°
2026-04-23 05:30 38.25585 -117.98359 40142 ft 443 kts 263°
2026-04-23 05:31 38.24757 -118.06129 40138 ft 443 kts 263°
2026-04-23 05:31 38.23924 -118.13902 40136 ft 443 kts 263°
2026-04-23 05:32 38.23083 -118.21698 40138 ft 445 kts 263°
2026-04-23 05:32 38.22240 -118.29460 40143 ft 446 kts 263°
2026-04-23 05:33 38.21387 -118.37260 40131 ft 444 kts 263°
2026-04-23 05:33 38.20533 -118.45026 40133 ft 442 kts 263°
2026-04-23 05:34 38.19674 -118.52791 40134 ft 444 kts 263°
2026-04-23 05:34 38.18809 -118.60561 40139 ft 444 kts 263°
2026-04-23 05:35 38.17943 -118.68292 40135 ft 442 kts 263°
2026-04-23 05:35 38.17073 -118.76016 40137 ft 440 kts 263°
2026-04-23 05:36 38.16200 -118.83715 40134 ft 439 kts 263°
2026-04-23 05:36 38.15321 -118.91417 40149 ft 441 kts 263°
2026-04-23 05:37 38.14443 -118.99072 40154 ft 439 kts 263°
2026-04-23 05:37 38.13560 -119.06717 40157 ft 436 kts 263°
2026-04-23 05:38 38.12674 -119.14357 40165 ft 436 kts 263°
2026-04-23 05:38 38.11783 -119.21987 40163 ft 437 kts 263°
2026-04-23 05:39 38.10892 -119.29572 40172 ft 435 kts 263°
2026-04-23 05:39 38.09995 -119.37166 40202 ft 434 kts 263°
2026-04-23 05:40 38.09094 -119.44755 40192 ft 437 kts 263°
2026-04-23 05:40 38.08178 -119.52421 40206 ft 441 kts 263°
2026-04-23 05:41 38.07262 -119.60041 40193 ft 437 kts 263°
2026-04-23 05:41 38.06344 -119.67640 40206 ft 436 kts 263°
2026-04-23 05:42 38.05416 -119.75282 40217 ft 438 kts 263°
2026-04-23 05:42 38.04483 -119.82913 40191 ft 436 kts 263°
2026-04-23 05:43 38.03550 -119.90510 40217 ft 434 kts 263°
2026-04-23 05:43 38.02621 -119.98033 40215 ft 433 kts 263°
2026-04-23 05:44 38.01682 -120.05600 40213 ft 433 kts 263°
2026-04-23 05:44 38.00740 -120.13146 40209 ft 433 kts 263°
2026-04-23 05:45 37.99801 -120.20613 40207 ft 430 kts 263°
2026-04-23 05:45 37.98855 -120.28123 40216 ft 432 kts 263°
2026-04-23 05:46 37.97899 -120.35651 40220 ft 432 kts 263°
2026-04-23 05:46 37.96940 -120.43172 40212 ft 430 kts 262°
2026-04-23 05:47 37.95983 -120.50639 40195 ft 428 kts 262°
2026-04-23 05:47 37.95024 -120.58078 40193 ft 427 kts 262°
2026-04-23 05:48 37.94061 -120.65512 40186 ft 428 kts 262°
2026-04-23 05:48 37.93096 -120.72929 40191 ft 430 kts 262°
2026-04-23 05:49 37.92113 -120.80439 40204 ft 434 kts 262°
2026-04-23 05:49 37.91119 -120.87996 40206 ft 434 kts 262°
2026-04-23 05:50 37.90122 -120.95535 40216 ft 433 kts 262°
2026-04-23 05:50 37.89127 -121.03024 40209 ft 430 kts 262°
2026-04-23 05:51 37.88137 -121.10445 40216 ft 429 kts 262°
2026-04-23 05:51 37.87135 -121.17907 40217 ft 430 kts 262°
2026-04-23 05:52 37.86127 -121.25381 40205 ft 430 kts 262°
2026-04-23 05:52 37.85117 -121.32830 40222 ft 428 kts 262°
2026-04-23 05:53 37.84105 -121.40264 40218 ft 428 kts 262°
2026-04-23 05:53 37.83090 -121.47677 40223 ft 427 kts 262°
2026-04-23 05:54 37.82072 -121.55076 40229 ft 426 kts 262°
2026-04-23 05:54 37.81060 -121.62398 40222 ft 425 kts 262°
2026-04-23 05:55 37.80037 -121.69768 40226 ft 426 kts 262°
2026-04-23 05:55 37.79008 -121.77144 40228 ft 425 kts 262°
2026-04-23 05:56 37.77976 -121.84503 40227 ft 423 kts 262°
2026-04-23 05:56 37.76944 -121.91835 40229 ft 423 kts 262°
2026-04-23 05:57 37.76084 -121.97915 40232 ft 423 kts 262°
2026-04-23 05:57 37.75042 -122.05252 40241 ft 426 kts 262°
2026-04-23 05:58 37.73813 -122.13855 40241 ft 427 kts 262°
2026-04-23 05:58 37.72738 -122.19934 40267 ft 427 kts 254°
2026-04-23 05:59 37.70188 -122.26757 40270 ft 435 kts 241°
2026-04-23 05:59 37.66755 -122.33118 40248 ft 438 kts 240°
2026-04-23 06:00 37.63299 -122.39464 40238 ft 436 kts 240°
2026-04-23 06:00 37.59902 -122.45692 40225 ft 430 kts 240°
2026-04-23 06:01 37.56506 -122.51916 40249 ft 432 kts 240°
2026-04-23 06:01 37.53078 -122.58176 40249 ft 433 kts 240°
2026-04-23 06:02 37.49656 -122.64419 40250 ft 432 kts 240°
2026-04-23 06:02 37.46257 -122.70607 40246 ft 432 kts 240°
2026-04-23 06:03 37.42839 -122.76818 40244 ft 431 kts 240°
2026-04-23 06:03 37.39425 -122.83010 40240 ft 431 kts 240°
2026-04-23 06:04 37.36005 -122.89202 40226 ft 431 kts 240°
2026-04-23 06:04 37.32580 -122.95392 40253 ft 431 kts 240°
2026-04-23 06:05 37.29152 -123.01575 40256 ft 432 kts 240°
2026-04-23 06:05 37.25731 -123.07733 40266 ft 433 kts 240°
2026-04-23 06:06 37.22278 -123.13939 40272 ft 434 kts 240°
2026-04-23 06:06 37.18818 -123.20146 40263 ft 433 kts 240°
2026-04-23 06:07 37.15371 -123.26317 40260 ft 431 kts 239°
2026-04-23 06:07 37.11929 -123.32468 40260 ft 431 kts 239°
2026-04-23 06:08 37.08486 -123.38610 40258 ft 431 kts 239°
2026-04-23 06:08 37.05063 -123.44706 40261 ft 430 kts 239°
2026-04-23 06:09 37.01597 -123.50866 40259 ft 430 kts 239°
2026-04-23 06:09 36.98171 -123.56944 40266 ft 430 kts 239°
2026-04-23 06:10 36.94714 -123.63067 40266 ft 430 kts 239°
2026-04-23 06:10 36.91253 -123.69184 40259 ft 430 kts 239°
2026-04-23 06:11 36.87795 -123.75286 40265 ft 430 kts 239°
2026-04-23 06:11 36.84331 -123.81388 40271 ft 430 kts 239°
2026-04-23 06:12 36.80890 -123.87437 40271 ft 430 kts 239°
2026-04-23 06:12 36.75694 -123.96553 40265 ft 429 kts 239°
2026-04-23 06:13 36.72231 -124.02613 40277 ft 429 kts 239°
2026-04-23 06:13 36.68763 -124.08672 40283 ft 429 kts 238°
2026-04-23 06:14 36.65291 -124.14729 40290 ft 429 kts 238°
2026-04-23 06:14 36.61815 -124.20781 40291 ft 430 kts 238°
2026-04-23 06:15 36.58351 -124.26800 40291 ft 430 kts 238°
2026-04-23 06:15 36.54850 -124.32873 40297 ft 431 kts 238°
2026-04-23 06:16 36.51349 -124.38937 40292 ft 431 kts 238°
2026-04-23 06:16 36.47853 -124.44979 40299 ft 430 kts 238°
2026-04-23 06:17 36.44381 -124.50970 40283 ft 429 kts 238°
2026-04-23 06:17 36.40893 -124.56978 40281 ft 427 kts 238°
2026-04-23 06:18 36.37412 -124.62964 40286 ft 428 kts 238°
2026-04-23 06:18 36.33907 -124.68980 40291 ft 431 kts 238°
2026-04-23 06:19 36.30388 -124.75011 40287 ft 431 kts 238°
2026-04-23 06:19 36.26889 -124.80994 40291 ft 430 kts 237°
2026-04-23 06:20 36.23374 -124.86998 40295 ft 429 kts 237°
2026-04-23 06:20 36.19860 -124.92986 40287 ft 430 kts 237°
2026-04-23 06:21 36.16337 -124.98981 40290 ft 431 kts 237°
2026-04-23 06:21 36.12806 -125.04978 40293 ft 432 kts 237°
2026-04-23 06:22 36.09278 -125.10960 40297 ft 432 kts 237°
2026-04-23 06:22 36.05732 -125.16963 40298 ft 432 kts 237°
2026-04-23 06:23 36.02179 -125.22966 40303 ft 432 kts 237°
2026-04-23 06:23 35.98621 -125.28967 40300 ft 432 kts 237°
2026-04-23 06:24 35.95059 -125.34966 40303 ft 434 kts 237°
2026-04-23 06:24 35.91486 -125.40970 40310 ft 434 kts 237°
2026-04-23 06:25 35.87936 -125.46928 40309 ft 433 kts 237°
2026-04-23 06:25 35.84366 -125.52908 40310 ft 433 kts 236°
2026-04-23 06:26 35.80792 -125.58884 40310 ft 434 kts 236°
2026-04-23 06:26 35.77204 -125.64873 40292 ft 434 kts 236°
2026-04-23 06:27 35.73607 -125.70867 40313 ft 436 kts 236°
2026-04-23 06:27 35.69989 -125.76885 40309 ft 436 kts 236°
2026-04-23 06:28 35.66394 -125.82856 40313 ft 437 kts 236°
2026-04-23 06:28 35.62766 -125.88870 40316 ft 438 kts 236°
2026-04-23 06:29 35.59241 -125.94963 40330 ft 435 kts 243°
2026-04-23 06:29 35.56297 -126.01464 40319 ft 435 kts 243°
2026-04-23 06:30 35.53380 -126.07919 40320 ft 435 kts 243°
2026-04-23 06:30 35.50436 -126.14416 40323 ft 435 kts 243°
2026-04-23 06:31 35.47485 -126.20918 40323 ft 436 kts 243°
2026-04-23 06:31 35.44530 -126.27413 40317 ft 436 kts 242°
2026-04-23 06:32 35.41565 -126.33920 40319 ft 436 kts 242°
2026-04-23 06:32 35.38609 -126.40395 40315 ft 435 kts 242°
2026-04-23 06:33 35.35658 -126.46848 40308 ft 433 kts 242°
2026-04-23 06:33 35.32726 -126.53245 40311 ft 433 kts 242°
2026-04-23 06:34 35.29760 -126.59706 40317 ft 436 kts 242°
2026-04-23 06:34 35.26778 -126.66186 40324 ft 437 kts 242°
2026-04-23 06:35 35.23787 -126.72676 40328 ft 437 kts 242°
2026-04-23 06:35 35.20794 -126.79159 40322 ft 437 kts 242°
2026-04-23 06:36 35.17816 -126.85597 40323 ft 438 kts 242°
2026-04-23 06:36 35.14800 -126.92103 40323 ft 439 kts 242°
2026-04-23 06:37 35.11793 -126.98579 40325 ft 437 kts 242°
2026-04-23 06:37 35.08804 -127.05004 40313 ft 437 kts 242°
2026-04-23 06:38 35.05797 -127.11456 40290 ft 437 kts 242°
2026-04-23 06:38 35.02772 -127.17932 40321 ft 441 kts 241°
2026-04-23 06:39 34.99725 -127.24444 40323 ft 441 kts 241°
2026-04-23 06:39 34.96679 -127.30943 40325 ft 442 kts 241°
2026-04-23 06:40 34.93640 -127.37413 40332 ft 443 kts 241°
2026-04-23 06:40 34.90560 -127.43959 40327 ft 442 kts 241°
2026-04-23 06:41 34.87518 -127.50411 40318 ft 441 kts 241°
2026-04-23 06:41 34.84457 -127.56893 40317 ft 441 kts 241°
2026-04-23 06:42 34.81396 -127.63364 40315 ft 441 kts 241°
2026-04-23 06:42 34.78851 -127.68734 40314 ft 440 kts 241°
2026-04-23 06:43 34.75284 -127.76245 40318 ft 441 kts 241°
2026-04-23 06:43 34.72729 -127.81616 40321 ft 442 kts 241°
2026-04-23 06:44 34.69637 -127.88103 40326 ft 443 kts 241°
2026-04-23 06:44 34.66541 -127.94588 40333 ft 444 kts 241°
2026-04-23 06:45 34.63434 -128.01084 40324 ft 443 kts 240°
2026-04-23 06:45 34.60349 -128.07522 40323 ft 443 kts 240°
2026-04-23 06:46 34.57237 -128.14004 40323 ft 443 kts 240°
2026-04-23 06:46 34.54129 -128.20468 40319 ft 443 kts 240°
2026-04-23 06:47 34.51015 -128.26929 40318 ft 444 kts 240°
2026-04-23 06:47 34.47915 -128.33351 40323 ft 444 kts 240°
2026-04-23 06:48 34.44780 -128.39832 40323 ft 445 kts 240°
2026-04-23 06:48 34.41648 -128.46298 40326 ft 445 kts 240°
2026-04-23 06:49 34.38511 -128.52760 40329 ft 444 kts 240°
2026-04-23 06:49 34.35402 -128.59154 40321 ft 442 kts 240°
2026-04-23 06:50 34.32278 -128.65565 40316 ft 441 kts 240°
2026-04-23 06:50 34.29160 -128.71955 40315 ft 441 kts 240°
2026-04-23 06:51 34.26027 -128.78363 40318 ft 443 kts 240°
2026-04-23 06:51 34.22882 -128.84782 40324 ft 444 kts 240°
2026-04-23 06:52 34.19744 -128.91178 40308 ft 444 kts 240°
2026-04-23 06:52 34.16584 -128.97606 40319 ft 446 kts 240°
2026-04-23 06:53 34.13403 -129.04065 40322 ft 446 kts 240°
2026-04-23 06:53 34.10233 -129.10489 40324 ft 445 kts 240°
2026-04-23 06:54 34.07068 -129.16893 40314 ft 444 kts 240°
2026-04-23 06:54 34.03906 -129.23280 40313 ft 443 kts 240°
2026-04-23 06:55 34.00741 -129.29660 40309 ft 443 kts 240°
2026-04-23 06:55 33.97568 -129.36044 40308 ft 445 kts 239°
2026-04-23 06:56 33.94379 -129.42450 40313 ft 447 kts 239°
2026-04-23 06:56 33.91174 -129.48877 40317 ft 447 kts 239°
2026-04-23 06:57 33.87992 -129.55246 40316 ft 446 kts 239°
2026-04-23 06:57 33.84797 -129.61630 40311 ft 445 kts 239°
2026-04-23 06:58 33.81601 -129.68005 40306 ft 445 kts 239°
2026-04-23 06:58 33.78401 -129.74375 40307 ft 445 kts 239°
2026-04-23 06:59 33.75218 -129.80700 40309 ft 444 kts 239°
2026-04-23 06:59 33.72016 -129.87053 40310 ft 444 kts 239°
2026-04-23 07:00 33.68816 -129.93392 40311 ft 443 kts 239°
2026-04-23 07:00 33.65613 -129.99723 40313 ft 444 kts 239°
2026-04-23 07:01 33.62400 -130.06064 40319 ft 445 kts 239°
2026-04-23 07:01 33.59171 -130.12425 40320 ft 446 kts 239°
2026-04-23 07:02 33.55956 -130.18749 40324 ft 446 kts 239°
2026-04-23 07:02 33.52721 -130.25099 40324 ft 446 kts 239°
2026-04-23 07:03 33.49487 -130.31437 40324 ft 445 kts 239°
2026-04-23 07:03 33.46256 -130.37757 40322 ft 444 kts 239°
2026-04-23 07:04 33.43022 -130.44073 40322 ft 443 kts 239°
2026-04-23 07:04 33.39796 -130.50363 40321 ft 443 kts 238°
2026-04-23 07:05 33.36573 -130.56635 40317 ft 442 kts 238°
2026-04-23 07:05 33.33368 -130.62862 40314 ft 443 kts 238°
2026-04-23 07:06 33.30123 -130.69156 40305 ft 444 kts 238°
2026-04-23 07:06 33.26877 -130.75442 40316 ft 445 kts 238°
2026-04-23 07:07 33.23620 -130.81737 40320 ft 445 kts 238°
2026-04-23 07:07 33.20353 -130.88040 40324 ft 446 kts 238°
2026-04-23 07:08 33.17101 -130.94305 40324 ft 446 kts 238°
2026-04-23 07:08 33.13823 -131.00608 40322 ft 446 kts 238°
2026-04-23 07:09 33.10547 -131.06898 40320 ft 446 kts 238°
2026-04-23 07:09 33.07272 -131.13173 40319 ft 445 kts 238°
2026-04-23 07:10 33.03996 -131.19440 40319 ft 445 kts 238°
2026-04-23 07:10 33.00744 -131.25651 40316 ft 444 kts 238°
2026-04-23 07:11 32.97470 -131.31893 40310 ft 443 kts 238°
2026-04-23 07:12 32.92562 -131.41233 40307 ft 444 kts 238°
2026-04-23 07:12 32.89293 -131.47439 40312 ft 445 kts 238°
2026-04-23 07:13 32.85996 -131.53688 40319 ft 446 kts 238°
2026-04-23 07:13 32.82691 -131.59943 40317 ft 447 kts 238°
2026-04-23 07:14 32.79387 -131.66184 40318 ft 445 kts 237°
2026-04-23 07:14 32.76093 -131.72397 40311 ft 443 kts 237°
2026-04-23 07:15 32.72805 -131.78588 40309 ft 443 kts 237°
2026-04-23 07:15 32.69512 -131.84778 40311 ft 444 kts 237°
2026-04-23 07:16 32.66227 -131.90942 40313 ft 444 kts 237°
2026-04-23 07:16 32.62914 -131.97147 40314 ft 445 kts 237°
2026-04-23 07:17 32.59600 -132.03346 40317 ft 445 kts 237°
2026-04-23 07:17 32.56282 -132.09543 40314 ft 445 kts 237°
2026-04-23 07:18 32.52961 -132.15733 40315 ft 444 kts 237°
2026-04-23 07:18 32.49663 -132.21870 40313 ft 444 kts 237°
2026-04-23 07:19 32.46340 -132.28045 40311 ft 443 kts 237°
2026-04-23 07:19 32.43025 -132.34195 40307 ft 443 kts 237°
2026-04-23 07:20 32.39706 -132.40342 40306 ft 443 kts 237°
2026-04-23 07:20 32.36389 -132.46473 40299 ft 442 kts 237°
2026-04-23 07:21 32.33075 -132.52592 40299 ft 441 kts 237°
2026-04-23 07:21 32.29777 -132.58670 40300 ft 442 kts 237°
2026-04-23 07:22 32.26437 -132.64815 40311 ft 443 kts 237°
2026-04-23 07:22 32.23109 -132.70929 40313 ft 442 kts 237°
2026-04-23 07:23 32.19802 -132.76994 40310 ft 441 kts 237°
2026-04-23 07:23 32.16492 -132.83079 40307 ft 440 kts 239°
2026-04-23 07:24 32.13464 -132.89368 40307 ft 442 kts 239°
2026-04-23 07:24 32.10411 -132.95679 40313 ft 443 kts 239°
2026-04-23 07:25 32.07358 -133.01999 40318 ft 443 kts 239°
2026-04-23 07:25 32.04298 -133.08312 40311 ft 442 kts 239°
2026-04-23 07:26 32.01266 -133.14562 40310 ft 441 kts 239°
2026-04-23 07:26 31.98216 -133.20835 40306 ft 441 kts 239°
2026-04-23 07:27 31.95164 -133.27105 40307 ft 440 kts 239°
2026-04-23 07:27 31.92626 -133.32309 40305 ft 439 kts 239°
2026-04-23 07:28 31.89581 -133.38544 40299 ft 440 kts 239°
2026-04-23 07:28 31.86515 -133.44812 40305 ft 442 kts 239°
2026-04-23 07:29 31.83442 -133.51082 40315 ft 443 kts 239°
2026-04-23 07:29 31.80360 -133.57362 40306 ft 443 kts 239°
2026-04-23 07:30 31.77298 -133.63589 40306 ft 442 kts 239°
2026-04-23 07:30 31.74211 -133.69859 40299 ft 442 kts 239°
2026-04-23 07:31 31.71130 -133.76103 40301 ft 442 kts 239°
2026-04-23 07:31 31.68042 -133.82353 40300 ft 442 kts 239°
2026-04-23 07:32 31.64951 -133.88598 40297 ft 444 kts 239°
2026-04-23 07:32 31.61839 -133.94877 40303 ft 445 kts 239°
2026-04-23 07:33 31.58742 -134.01114 40301 ft 444 kts 239°
2026-04-23 07:33 31.55622 -134.07386 40290 ft 445 kts 239°
2026-04-23 07:34 31.52499 -134.13656 40290 ft 446 kts 239°
2026-04-23 07:34 31.49355 -134.19956 40296 ft 447 kts 239°
2026-04-23 07:35 31.46235 -134.26198 40298 ft 447 kts 239°
2026-04-23 07:35 31.43073 -134.32513 40301 ft 449 kts 239°
2026-04-23 07:36 31.39908 -134.38826 40300 ft 448 kts 239°
2026-04-23 07:36 31.36752 -134.45109 40292 ft 448 kts 239°
2026-04-23 07:37 31.33581 -134.51411 40295 ft 450 kts 239°
2026-04-23 07:37 31.30416 -134.57692 40296 ft 450 kts 239°
2026-04-23 07:38 31.27232 -134.63999 40292 ft 450 kts 239°
2026-04-23 07:38 31.24037 -134.70318 40292 ft 451 kts 239°
2026-04-23 07:39 31.20834 -134.76641 40288 ft 453 kts 239°
2026-04-23 07:39 31.17625 -134.82968 40286 ft 452 kts 239°
2026-04-23 07:40 31.14438 -134.89239 40285 ft 451 kts 239°
2026-04-23 07:40 31.11225 -134.95553 40282 ft 451 kts 239°
2026-04-23 07:41 31.08016 -135.01847 40280 ft 450 kts 239°
2026-04-23 07:41 31.04822 -135.08103 40281 ft 452 kts 239°
2026-04-23 07:42 31.01592 -135.14419 40297 ft 453 kts 239°
2026-04-23 07:42 30.98358 -135.20732 40292 ft 453 kts 240°
2026-04-23 07:43 30.95119 -135.27045 40292 ft 452 kts 240°
2026-04-23 07:43 30.91913 -135.33283 40279 ft 451 kts 240°
2026-04-23 07:44 30.88687 -135.39549 40289 ft 450 kts 240°
2026-04-23 07:44 30.85456 -135.45817 40292 ft 452 kts 240°
2026-04-23 07:45 30.82206 -135.52110 40292 ft 454 kts 240°
2026-04-23 07:45 30.78951 -135.58403 40297 ft 453 kts 240°
2026-04-23 07:46 30.75715 -135.64648 40285 ft 453 kts 240°
2026-04-23 07:46 30.72457 -135.70928 40287 ft 454 kts 240°
2026-04-23 07:47 30.69178 -135.77236 40286 ft 455 kts 240°
2026-04-23 07:47 30.65907 -135.83519 40279 ft 453 kts 240°
2026-04-23 07:48 30.62663 -135.89741 40279 ft 453 kts 240°
2026-04-23 07:48 30.59398 -135.95994 40278 ft 453 kts 240°
2026-04-23 07:49 30.56126 -136.02249 40280 ft 453 kts 240°
2026-04-23 07:49 30.52871 -136.08462 40273 ft 452 kts 240°
2026-04-23 07:50 30.49599 -136.14697 40273 ft 452 kts 240°
2026-04-23 07:50 30.46323 -136.20930 40283 ft 452 kts 240°
2026-04-23 07:51 30.43049 -136.27149 40270 ft 452 kts 240°
2026-04-23 07:51 30.39770 -136.33370 40276 ft 453 kts 240°
2026-04-23 07:52 30.36476 -136.39608 40287 ft 454 kts 240°
2026-04-23 07:52 30.33194 -136.45814 40283 ft 455 kts 240°
2026-04-23 07:53 30.29883 -136.52064 40285 ft 454 kts 240°
2026-04-23 07:53 30.26576 -136.58299 40284 ft 454 kts 239°
2026-04-23 07:54 30.23261 -136.64536 40279 ft 456 kts 239°
2026-04-23 07:54 30.19934 -136.70787 40274 ft 457 kts 240°
2026-04-23 07:55 30.16622 -136.77000 40278 ft 456 kts 240°
2026-04-23 07:55 30.13291 -136.83239 40275 ft 454 kts 239°
2026-04-23 07:56 30.09973 -136.89446 40269 ft 453 kts 239°
2026-04-23 07:56 30.06671 -136.95612 40267 ft 453 kts 239°
2026-04-23 07:57 30.03344 -137.01816 40281 ft 455 kts 240°
2026-04-23 07:57 30.00002 -137.08036 40280 ft 456 kts 240°
2026-04-23 07:58 29.96651 -137.14265 40265 ft 457 kts 240°
2026-04-23 07:58 29.93302 -137.20479 40270 ft 455 kts 240°
2026-04-23 07:59 29.89956 -137.26679 40266 ft 456 kts 240°
2026-04-23 07:59 29.86625 -137.32843 40266 ft 456 kts 240°
2026-04-23 08:00 29.83272 -137.39037 40270 ft 455 kts 240°
2026-04-23 08:00 29.79900 -137.45256 40270 ft 458 kts 240°
2026-04-23 08:01 29.76519 -137.51483 40272 ft 459 kts 240°
2026-04-23 08:01 29.73131 -137.57713 40277 ft 459 kts 239°
2026-04-23 08:02 29.69759 -137.63904 40263 ft 460 kts 240°
2026-04-23 08:02 29.66353 -137.70147 40268 ft 461 kts 240°
2026-04-23 08:03 29.62940 -137.76394 40271 ft 460 kts 240°
2026-04-23 08:03 29.59538 -137.82611 40254 ft 459 kts 240°
2026-04-23 08:04 29.56132 -137.88826 40257 ft 460 kts 240°
2026-04-23 08:04 29.52721 -137.95042 40258 ft 460 kts 240°
2026-04-23 08:05 29.49318 -138.01232 40262 ft 461 kts 240°
2026-04-23 08:05 29.45896 -138.07447 40266 ft 460 kts 240°
2026-04-23 08:06 29.42478 -138.13648 40258 ft 460 kts 240°
2026-04-23 08:06 29.39048 -138.19860 40258 ft 461 kts 240°
2026-04-23 08:07 29.35613 -138.26071 40261 ft 461 kts 240°
2026-04-23 08:07 29.32186 -138.32256 40253 ft 459 kts 240°
2026-04-23 08:08 29.28768 -138.38421 40252 ft 458 kts 240°
2026-04-23 08:08 29.25341 -138.44588 40248 ft 458 kts 240°
2026-04-23 08:09 29.21924 -138.50731 40249 ft 458 kts 240°
2026-04-23 08:09 29.18504 -138.56868 40257 ft 457 kts 240°
2026-04-23 08:10 29.15095 -138.62978 40256 ft 457 kts 240°
2026-04-23 08:10 29.09952 -138.72177 40252 ft 458 kts 240°
2026-04-23 08:11 29.06518 -138.78309 40258 ft 458 kts 240°
2026-04-23 08:11 29.03078 -138.84441 40258 ft 458 kts 240°
2026-04-23 08:12 28.99630 -138.90579 40258 ft 458 kts 240°
2026-04-23 08:12 28.96185 -138.96704 40259 ft 458 kts 240°
2026-04-23 08:13 28.93319 -139.01791 40243 ft 458 kts 240°
2026-04-23 08:13 28.89307 -139.08903 40250 ft 458 kts 240°
2026-04-23 08:14 28.86436 -139.13984 40251 ft 457 kts 240°
2026-04-23 08:14 28.82989 -139.20078 40247 ft 457 kts 240°
2026-04-23 08:15 28.79543 -139.26160 40244 ft 457 kts 240°
2026-04-23 08:15 28.76080 -139.32264 40256 ft 459 kts 240°
2026-04-23 08:16 28.72605 -139.38379 40255 ft 460 kts 240°
2026-04-23 08:16 28.69437 -139.44662 40260 ft 455 kts 250°
2026-04-23 08:17 28.67013 -139.51259 40239 ft 454 kts 250°
2026-04-23 08:17 28.64579 -139.57894 40246 ft 454 kts 250°
2026-04-23 08:18 28.62130 -139.64544 40248 ft 455 kts 250°
2026-04-23 08:18 28.59681 -139.71189 40255 ft 455 kts 250°
2026-04-23 08:19 28.57222 -139.77843 40226 ft 456 kts 250°
2026-04-23 08:19 28.54761 -139.84497 40246 ft 457 kts 250°
2026-04-23 08:20 28.52287 -139.91169 40251 ft 458 kts 250°
2026-04-23 08:20 28.49828 -139.97789 40251 ft 456 kts 250°
2026-04-23 08:21 28.47362 -140.04420 40237 ft 454 kts 250°
2026-04-23 08:21 28.44898 -140.11031 40233 ft 453 kts 250°
2026-04-23 08:22 28.42431 -140.17640 40233 ft 456 kts 250°
2026-04-23 08:22 28.39948 -140.24277 40238 ft 456 kts 250°
2026-04-23 08:23 28.37479 -140.30868 40242 ft 456 kts 250°
2026-04-23 08:23 28.34991 -140.37499 40242 ft 456 kts 250°
2026-04-23 08:24 28.32501 -140.44122 40233 ft 456 kts 250°
2026-04-23 08:24 28.30001 -140.50759 40235 ft 457 kts 250°
2026-04-23 08:25 28.27493 -140.57406 40239 ft 458 kts 250°
2026-04-23 08:25 28.24981 -140.64053 40239 ft 457 kts 250°
2026-04-23 08:26 28.22490 -140.70632 40237 ft 457 kts 250°
2026-04-23 08:26 28.19982 -140.77245 40225 ft 456 kts 250°
2026-04-23 08:27 28.17471 -140.83854 40226 ft 455 kts 250°
2026-04-23 08:27 28.14962 -140.90447 40232 ft 456 kts 250°
2026-04-23 08:28 28.12439 -140.97065 40236 ft 459 kts 250°
2026-04-23 08:28 28.09904 -141.03702 40236 ft 459 kts 250°
2026-04-23 08:29 28.07380 -141.10298 40224 ft 458 kts 250°
2026-04-23 08:29 28.04841 -141.16924 40223 ft 457 kts 250°
2026-04-23 08:30 28.02308 -141.23524 40222 ft 457 kts 250°
2026-04-23 08:30 27.99790 -141.30073 40220 ft 456 kts 250°
2026-04-23 08:31 27.97250 -141.36666 40200 ft 457 kts 250°
2026-04-23 08:31 27.94698 -141.43279 40223 ft 459 kts 250°
2026-04-23 08:32 27.92140 -141.49899 40224 ft 460 kts 250°
2026-04-23 08:32 27.89572 -141.56530 40226 ft 460 kts 250°
2026-04-23 08:33 27.86999 -141.63167 40223 ft 462 kts 250°
2026-04-23 08:33 27.84429 -141.69780 40226 ft 462 kts 250°
2026-04-23 08:34 27.81840 -141.76431 40226 ft 461 kts 250°
2026-04-23 08:34 27.79255 -141.83064 40223 ft 461 kts 250°
2026-04-23 08:35 27.76660 -141.89711 40221 ft 464 kts 250°
2026-04-23 08:35 27.74049 -141.96384 40218 ft 464 kts 250°
2026-04-23 08:36 27.71458 -142.02997 40206 ft 462 kts 250°
2026-04-23 08:36 27.68856 -142.09626 40207 ft 462 kts 250°
2026-04-23 08:37 27.66245 -142.16268 40207 ft 463 kts 250°
2026-04-23 08:37 27.63624 -142.22924 40209 ft 464 kts 250°
2026-04-23 08:38 27.61015 -142.29537 40213 ft 465 kts 250°
2026-04-23 08:38 27.58387 -142.36188 40213 ft 463 kts 250°
2026-04-23 08:39 27.55775 -142.42784 40193 ft 459 kts 250°
2026-04-23 08:39 27.53172 -142.49354 40190 ft 459 kts 250°
2026-04-23 08:40 27.50560 -142.55928 40195 ft 460 kts 250°
2026-04-23 08:40 27.47957 -142.62473 40207 ft 461 kts 250°
2026-04-23 08:41 27.45331 -142.69063 40181 ft 462 kts 250°
2026-04-23 08:41 27.42711 -142.75629 40198 ft 459 kts 250°
2026-04-23 08:42 27.40088 -142.82190 40203 ft 459 kts 250°
2026-04-23 08:42 27.37464 -142.88744 40197 ft 459 kts 250°
2026-04-23 08:43 27.34839 -142.95289 40199 ft 459 kts 250°
2026-04-23 08:43 27.32205 -143.01845 40196 ft 459 kts 250°
2026-04-23 08:44 27.29570 -143.08396 40188 ft 460 kts 250°
2026-04-23 08:44 27.26922 -143.14964 40197 ft 462 kts 250°
2026-04-23 08:45 27.24266 -143.21544 40198 ft 462 kts 250°
2026-04-23 08:45 27.21623 -143.28078 40194 ft 461 kts 250°
2026-04-23 08:46 27.18967 -143.34638 40190 ft 461 kts 250°
2026-04-23 08:46 27.16305 -143.41199 40181 ft 462 kts 250°
2026-04-23 08:47 27.13635 -143.47769 40184 ft 462 kts 250°
2026-04-23 08:47 27.10959 -143.54343 40186 ft 463 kts 250°
2026-04-23 08:48 27.08278 -143.60920 40185 ft 464 kts 250°
2026-04-23 08:48 27.05605 -143.67469 40187 ft 464 kts 250°
2026-04-23 08:49 27.02914 -143.74047 40182 ft 462 kts 250°
2026-04-23 08:49 27.00233 -143.80593 40174 ft 461 kts 250°
2026-04-23 08:50 26.97551 -143.87127 40173 ft 461 kts 250°
2026-04-23 08:50 26.94870 -143.93652 40173 ft 460 kts 250°
2026-04-23 08:51 26.92207 -144.00122 40165 ft 460 kts 250°
2026-04-23 08:51 26.89518 -144.06645 40157 ft 460 kts 250°
2026-04-23 08:52 26.86830 -144.13157 40181 ft 462 kts 250°
2026-04-23 08:52 26.84126 -144.19694 40179 ft 463 kts 250°
2026-04-23 08:53 26.81414 -144.26238 40170 ft 462 kts 250°
2026-04-23 08:53 26.78720 -144.32736 40168 ft 462 kts 250°
2026-04-23 08:54 26.76004 -144.39269 40173 ft 462 kts 250°
2026-04-23 08:54 26.73287 -144.45799 40163 ft 462 kts 250°
2026-04-23 08:55 26.70569 -144.52319 40160 ft 463 kts 250°
2026-04-23 08:55 26.67845 -144.58844 40160 ft 462 kts 250°
2026-04-23 08:56 26.65140 -144.65312 40153 ft 462 kts 250°
2026-04-23 08:56 26.62420 -144.71807 40155 ft 461 kts 250°
2026-04-23 08:57 26.59695 -144.78302 40158 ft 460 kts 250°
2026-04-23 08:57 26.56972 -144.84785 40154 ft 460 kts 250°
2026-04-23 08:58 26.54243 -144.91271 40156 ft 461 kts 250°
2026-04-23 08:58 26.51513 -144.97748 40153 ft 461 kts 250°
2026-04-23 08:59 26.48791 -145.04196 40162 ft 461 kts 250°
2026-04-23 08:59 26.46060 -145.10656 40156 ft 459 kts 250°
2026-04-23 09:00 26.43338 -145.17087 40149 ft 458 kts 250°
2026-04-23 09:00 26.40614 -145.23511 40151 ft 459 kts 250°
2026-04-23 09:01 26.38336 -145.28876 40154 ft 460 kts 250°
2026-04-23 09:01 26.35589 -145.35337 40156 ft 460 kts 250°
2026-04-23 09:02 26.32840 -145.41792 40156 ft 461 kts 250°
2026-04-23 09:02 26.30104 -145.48205 40135 ft 461 kts 250°
2026-04-23 09:03 26.27352 -145.54649 40142 ft 460 kts 250°
2026-04-23 09:03 26.24598 -145.61086 40137 ft 459 kts 250°
2026-04-23 09:04 26.21853 -145.67492 40132 ft 457 kts 250°
2026-04-23 09:04 26.19110 -145.73886 40134 ft 458 kts 250°
2026-04-23 09:05 26.16355 -145.80297 40139 ft 459 kts 251°
2026-04-23 09:05 26.13593 -145.86712 40146 ft 459 kts 251°
2026-04-23 09:06 26.10840 -145.93102 40143 ft 459 kts 251°
2026-04-23 09:06 26.08073 -145.99510 40139 ft 459 kts 251°
2026-04-23 09:07 26.05302 -146.05920 40142 ft 459 kts 251°
2026-04-23 09:07 26.02547 -146.12284 40140 ft 459 kts 251°
2026-04-23 09:08 25.99776 -146.18674 40145 ft 459 kts 251°
2026-04-23 09:08 25.97009 -146.25062 40134 ft 458 kts 251°
2026-04-23 09:09 25.94237 -146.31447 40127 ft 458 kts 251°
2026-04-23 09:09 25.91486 -146.37773 40131 ft 456 kts 251°
2026-04-23 09:10 25.87332 -146.47313 40128 ft 457 kts 251°
2026-04-23 09:11 25.84558 -146.53670 40131 ft 458 kts 251°
2026-04-23 09:11 25.81788 -146.60008 40131 ft 458 kts 251°
2026-04-23 09:12 25.79005 -146.66367 40133 ft 458 kts 251°
2026-04-23 09:12 25.76222 -146.72717 40133 ft 458 kts 251°
2026-04-23 09:13 25.73434 -146.79069 40131 ft 458 kts 251°
2026-04-23 09:13 25.70646 -146.85412 40119 ft 458 kts 251°
2026-04-23 09:14 25.67854 -146.91755 40119 ft 457 kts 251°
2026-04-23 09:14 25.65081 -146.98046 40132 ft 457 kts 251°
2026-04-23 09:15 25.62281 -147.04391 40141 ft 459 kts 251°
2026-04-23 09:15 25.59470 -147.10746 40140 ft 460 kts 251°
2026-04-23 09:16 25.56659 -147.17097 40137 ft 458 kts 251°
2026-04-23 09:16 25.53854 -147.23423 40133 ft 456 kts 251°
2026-04-23 09:17 25.51056 -147.29725 40127 ft 456 kts 251°
2026-04-23 09:17 25.48268 -147.35996 40129 ft 457 kts 251°
2026-04-23 09:18 25.45451 -147.42320 40136 ft 458 kts 251°
2026-04-23 09:18 25.42629 -147.48648 40139 ft 458 kts 251°
2026-04-23 09:19 25.39808 -147.54968 40141 ft 458 kts 251°
2026-04-23 09:19 25.36980 -147.61291 40141 ft 458 kts 251°
2026-04-23 09:20 25.34154 -147.67602 40139 ft 458 kts 251°
2026-04-23 09:20 25.31331 -147.73897 40127 ft 457 kts 251°
2026-04-23 09:21 25.28508 -147.80183 40123 ft 456 kts 250°
2026-04-23 09:21 25.25701 -147.86423 40127 ft 456 kts 250°
2026-04-23 09:22 25.22878 -147.92693 40121 ft 456 kts 250°
2026-04-23 09:22 25.20054 -147.98955 40124 ft 455 kts 250°
2026-04-23 09:23 25.17213 -148.05247 40131 ft 457 kts 250°
2026-04-23 09:23 25.14384 -148.11500 40132 ft 458 kts 250°
2026-04-23 09:24 25.11528 -148.17810 40133 ft 460 kts 250°
2026-04-23 09:24 25.08657 -148.24136 40135 ft 459 kts 250°
2026-04-23 09:25 25.05804 -148.30420 40131 ft 457 kts 250°
2026-04-23 09:25 25.02958 -148.36678 40125 ft 456 kts 250°
2026-04-23 09:26 25.00125 -148.42900 40125 ft 457 kts 250°
2026-04-23 09:26 24.97259 -148.49183 40135 ft 458 kts 250°
2026-04-23 09:27 24.94385 -148.55477 40143 ft 460 kts 250°
2026-04-23 09:27 24.91505 -148.61774 40143 ft 460 kts 250°
2026-04-23 09:28 24.88625 -148.68063 40138 ft 460 kts 250°
2026-04-23 09:28 24.85764 -148.74302 40141 ft 459 kts 250°
2026-04-23 09:29 24.82883 -148.80578 40141 ft 459 kts 250°
2026-04-23 09:29 24.80002 -148.86843 40143 ft 458 kts 250°
2026-04-23 09:30 24.77122 -148.93096 40141 ft 458 kts 250°
2026-04-23 09:30 24.74238 -148.99352 40135 ft 458 kts 250°
2026-04-23 09:31 24.71354 -149.05597 40131 ft 457 kts 250°
2026-04-23 09:31 24.68491 -149.11790 40128 ft 457 kts 250°
2026-04-23 09:32 24.65599 -149.18037 40128 ft 456 kts 250°
2026-04-23 09:32 24.62717 -149.24253 40113 ft 456 kts 250°
2026-04-23 09:33 24.59842 -149.30451 40133 ft 460 kts 250°
2026-04-23 09:33 24.56923 -149.36726 40134 ft 461 kts 250°
2026-04-23 09:34 24.54004 -149.42998 40134 ft 461 kts 250°
2026-04-23 09:34 24.51080 -149.49271 40137 ft 461 kts 250°
2026-04-23 09:35 24.48154 -149.55540 40140 ft 461 kts 250°
2026-04-23 09:35 24.45228 -149.61801 40137 ft 461 kts 250°
2026-04-23 09:36 24.42299 -149.68059 40133 ft 461 kts 250°
2026-04-23 09:36 24.39377 -149.74296 40136 ft 463 kts 250°
2026-04-23 09:37 24.36431 -149.80572 40139 ft 462 kts 250°
2026-04-23 09:37 24.33488 -149.86836 40137 ft 461 kts 250°
2026-04-23 09:38 24.30548 -149.93084 40127 ft 459 kts 250°
2026-04-23 09:38 24.27618 -149.99304 40126 ft 458 kts 250°
2026-04-23 09:39 24.24702 -150.05488 40117 ft 460 kts 250°
2026-04-23 09:39 24.21749 -150.11738 40143 ft 464 kts 250°
2026-04-23 09:40 24.18858 -150.17846 40141 ft 463 kts 249°
2026-04-23 09:40 24.15899 -150.24097 40142 ft 463 kts 249°
2026-04-23 09:41 24.12932 -150.30351 40144 ft 462 kts 249°
2026-04-23 09:41 24.09968 -150.36594 40142 ft 462 kts 249°
2026-04-23 09:42 24.07002 -150.42831 40139 ft 461 kts 249°
2026-04-23 09:42 24.04036 -150.49063 40126 ft 463 kts 249°
2026-04-23 09:43 24.01053 -150.55319 40133 ft 464 kts 249°
2026-04-23 09:43 23.98074 -150.61559 40136 ft 465 kts 249°
2026-04-23 09:44 23.95079 -150.67824 40138 ft 465 kts 249°
2026-04-23 09:44 23.93579 -150.70957 40003 ft 462 kts 249°
2026-04-23 09:44 23.92099 -150.74043 39853 ft 456 kts 249°
2026-04-23 09:44 23.90636 -150.77094 39691 ft 450 kts 249°
2026-04-23 09:45 23.89193 -150.80110 39531 ft 447 kts 249°
2026-04-23 09:45 23.87751 -150.83122 39351 ft 448 kts 249°
2026-04-23 09:45 23.86321 -150.86104 39106 ft 449 kts 249°
2026-04-23 09:45 23.84865 -150.89132 38882 ft 451 kts 249°
2026-04-23 09:46 23.83407 -150.92163 38641 ft 451 kts 249°
2026-04-23 09:46 23.81949 -150.95196 38382 ft 451 kts 249°
2026-04-23 09:46 23.80487 -150.98235 38116 ft 451 kts 248°
2026-04-23 09:46 23.79023 -151.01276 37866 ft 452 kts 248°
2026-04-23 09:47 23.77555 -151.04324 37603 ft 454 kts 248°
2026-04-23 09:47 23.76082 -151.07378 37363 ft 454 kts 248°
2026-04-23 09:47 23.75107 -151.09399 37207 ft 455 kts 248°
2026-04-23 09:47 23.73627 -151.12464 36959 ft 456 kts 248°
2026-04-23 09:48 23.72145 -151.15534 36729 ft 457 kts 247°
2026-04-23 09:48 23.70662 -151.18603 36496 ft 458 kts 247°
2026-04-23 09:48 23.69174 -151.21681 36265 ft 459 kts 247°
2026-04-23 09:48 23.67679 -151.24770 36027 ft 460 kts 247°
2026-04-23 09:49 23.66181 -151.27864 35794 ft 462 kts 246°
2026-04-23 09:49 23.64677 -151.30969 35566 ft 464 kts 246°
2026-04-23 09:49 23.63164 -151.34089 35342 ft 465 kts 246°
2026-04-23 09:49 23.61668 -151.37172 35128 ft 466 kts 246°
2026-04-23 09:50 23.60134 -151.40333 34893 ft 466 kts 246°
2026-04-23 09:50 23.58617 -151.43456 34680 ft 466 kts 246°
2026-04-23 09:50 23.57117 -151.46541 34467 ft 467 kts 246°
2026-04-23 09:50 23.55593 -151.49676 34247 ft 469 kts 245°
2026-04-23 09:51 23.54063 -151.52820 34011 ft 470 kts 245°
2026-04-23 09:51 23.52527 -151.55971 33780 ft 470 kts 245°
2026-04-23 09:51 23.50996 -151.59114 33523 ft 469 kts 245°
2026-04-23 09:51 23.49464 -151.62256 33280 ft 469 kts 245°
2026-04-23 09:52 23.47927 -151.65407 33043 ft 470 kts 245°
2026-04-23 09:52 23.46391 -151.68553 32786 ft 471 kts 245°
2026-04-23 09:52 23.44845 -151.71718 32544 ft 473 kts 245°
2026-04-23 09:52 23.43298 -151.74882 32326 ft 473 kts 245°
2026-04-23 09:53 23.41770 -151.78003 32088 ft 473 kts 245°
2026-04-23 09:53 23.40223 -151.81164 31854 ft 473 kts 245°
2026-04-23 09:53 23.38671 -151.84333 31621 ft 472 kts 245°
2026-04-23 09:53 23.37131 -151.87475 31383 ft 470 kts 245°
2026-04-23 09:54 23.35593 -151.90610 31159 ft 468 kts 244°
2026-04-23 09:54 23.34063 -151.93728 30923 ft 466 kts 244°
2026-04-23 09:54 23.32539 -151.96831 30695 ft 464 kts 244°
2026-04-23 09:54 23.31016 -151.99930 30465 ft 463 kts 244°
2026-04-23 09:55 23.29501 -152.03012 30241 ft 461 kts 244°
2026-04-23 09:55 23.27993 -152.06076 29979 ft 458 kts 244°
2026-04-23 09:55 23.26490 -152.09131 29692 ft 457 kts 244°
2026-04-23 09:55 23.25010 -152.12135 29421 ft 456 kts 244°
2026-04-23 09:56 23.23511 -152.15176 29164 ft 455 kts 244°
2026-04-23 09:56 23.22014 -152.18211 28904 ft 454 kts 244°
2026-04-23 09:56 23.20524 -152.21230 28647 ft 453 kts 244°
2026-04-23 09:56 23.19036 -152.24244 28387 ft 452 kts 244°
2026-04-23 09:57 23.17552 -152.27248 28136 ft 451 kts 244°
2026-04-23 09:57 23.16067 -152.30250 27996 ft 448 kts 244°
2026-04-23 09:57 23.14596 -152.33223 27997 ft 447 kts 244°
2026-04-23 09:57 23.13120 -152.36206 28000 ft 449 kts 244°
2026-04-23 09:58 23.11638 -152.39199 28002 ft 449 kts 244°
2026-04-23 09:58 23.08672 -152.45181 28000 ft 449 kts 244°
2026-04-23 09:59 23.05725 -152.51120 27994 ft 449 kts 244°
2026-04-23 09:59 23.04242 -152.54104 27991 ft 449 kts 244°
2026-04-23 09:59 23.02758 -152.57090 27994 ft 450 kts 244°
2026-04-23 09:59 23.01269 -152.60079 27992 ft 450 kts 244°
2026-04-23 10:00 22.99771 -152.63062 27993 ft 450 kts 243°
2026-04-23 10:00 22.98268 -152.66051 27997 ft 451 kts 244°
2026-04-23 10:00 22.96769 -152.69041 27995 ft 451 kts 244°
2026-04-23 10:00 22.95269 -152.72033 27996 ft 451 kts 244°
2026-04-23 10:01 22.93765 -152.75027 27998 ft 451 kts 243°
2026-04-23 10:01 22.90776 -152.80970 27985 ft 452 kts 243°
2026-04-23 10:01 22.89266 -152.83975 27723 ft 454 kts 243°
2026-04-23 10:02 22.87759 -152.86967 27471 ft 450 kts 243°
2026-04-23 10:02 22.86263 -152.89934 27220 ft 448 kts 243°
2026-04-23 10:02 22.84772 -152.92893 26973 ft 446 kts 243°
2026-04-23 10:02 22.83286 -152.95839 26796 ft 444 kts 243°
2026-04-23 10:03 22.81803 -152.98779 26665 ft 444 kts 243°
2026-04-23 10:03 22.80322 -153.01712 26547 ft 444 kts 243°
2026-04-23 10:03 22.78839 -153.04647 26426 ft 444 kts 243°
2026-04-23 10:03 22.77357 -153.07579 26308 ft 443 kts 243°
2026-04-23 10:04 22.75873 -153.10513 26191 ft 443 kts 243°
2026-04-23 10:04 22.74409 -153.13406 26076 ft 443 kts 243°
2026-04-23 10:04 22.72924 -153.16339 25958 ft 444 kts 243°
2026-04-23 10:04 22.71432 -153.19282 25841 ft 443 kts 243°
2026-04-23 10:05 22.69950 -153.22207 25725 ft 443 kts 243°
2026-04-23 10:05 22.68465 -153.25134 25609 ft 442 kts 243°
2026-04-23 10:05 22.66985 -153.28050 25498 ft 442 kts 243°
2026-04-23 10:05 22.65505 -153.30964 25380 ft 441 kts 243°
2026-04-23 10:06 22.64026 -153.33875 25258 ft 441 kts 243°
2026-04-23 10:06 22.62546 -153.36785 25150 ft 441 kts 243°
2026-04-23 10:06 22.61069 -153.39689 25032 ft 440 kts 243°
2026-04-23 10:06 22.59594 -153.42587 24919 ft 440 kts 243°
2026-04-23 10:07 22.58116 -153.45488 24795 ft 440 kts 243°
2026-04-23 10:07 22.56656 -153.48354 24687 ft 440 kts 243°
2026-04-23 10:07 22.55175 -153.51258 24579 ft 440 kts 243°
2026-04-23 10:07 22.53699 -153.54152 24465 ft 439 kts 243°
2026-04-23 10:08 22.52224 -153.57041 24356 ft 439 kts 243°
2026-04-23 10:08 22.50749 -153.59930 24245 ft 438 kts 243°
2026-04-23 10:08 22.49271 -153.62821 24140 ft 438 kts 243°
2026-04-23 10:09 22.46328 -153.68575 23914 ft 437 kts 243°
2026-04-23 10:09 22.44859 -153.71447 23803 ft 436 kts 243°
2026-04-23 10:09 22.43407 -153.74281 23680 ft 436 kts 243°
2026-04-23 10:09 22.41933 -153.77157 23552 ft 437 kts 243°
2026-04-23 10:10 22.40456 -153.80039 23418 ft 436 kts 243°
2026-04-23 10:10 22.38987 -153.82900 23288 ft 435 kts 243°
2026-04-23 10:10 22.37517 -153.85764 23153 ft 434 kts 243°
2026-04-23 10:10 22.36053 -153.88615 23030 ft 433 kts 243°
2026-04-23 10:11 22.34610 -153.91424 22904 ft 432 kts 243°
2026-04-23 10:11 22.33150 -153.94266 22771 ft 431 kts 243°
2026-04-23 10:11 22.31695 -153.97097 22645 ft 430 kts 243°
2026-04-23 10:11 22.30242 -153.99920 22511 ft 430 kts 243°
2026-04-23 10:12 22.28792 -154.02738 22395 ft 429 kts 243°
2026-04-23 10:12 22.27345 -154.05550 22259 ft 428 kts 243°
2026-04-23 10:12 22.25898 -154.08362 22130 ft 429 kts 243°
2026-04-23 10:12 22.24450 -154.11175 22017 ft 428 kts 243°
2026-04-23 10:13 22.23005 -154.13979 21885 ft 427 kts 243°
2026-04-23 10:13 22.21564 -154.16776 21761 ft 426 kts 243°
2026-04-23 10:13 22.20123 -154.19571 21631 ft 425 kts 243°
2026-04-23 10:13 22.18685 -154.22359 21505 ft 424 kts 243°
2026-04-23 10:14 22.17262 -154.25120 21386 ft 424 kts 243°
2026-04-23 10:14 22.15829 -154.27899 21265 ft 423 kts 243°
2026-04-23 10:14 22.14397 -154.30673 21144 ft 423 kts 243°
2026-04-23 10:14 22.12965 -154.33449 21021 ft 422 kts 243°
2026-04-23 10:15 22.11541 -154.36206 20900 ft 420 kts 243°
2026-04-23 10:15 22.10120 -154.38958 20772 ft 420 kts 243°
2026-04-23 10:15 22.08696 -154.41713 20663 ft 420 kts 243°
2026-04-23 10:15 22.07275 -154.44462 20540 ft 419 kts 243°
2026-04-23 10:16 22.05875 -154.47171 20320 ft 419 kts 243°
2026-04-23 10:16 22.04456 -154.49916 20082 ft 417 kts 243°
2026-04-23 10:16 22.03046 -154.52642 19848 ft 415 kts 243°
2026-04-23 10:16 22.01644 -154.55350 19616 ft 413 kts 243°
2026-04-23 10:17 22.00245 -154.58050 19383 ft 411 kts 243°
2026-04-23 10:17 21.98853 -154.60736 19155 ft 410 kts 243°
2026-04-23 10:17 21.97467 -154.63409 18928 ft 408 kts 243°
2026-04-23 10:17 21.96081 -154.66081 18705 ft 407 kts 243°
2026-04-23 10:18 21.94717 -154.68710 18481 ft 407 kts 243°
2026-04-23 10:18 21.93340 -154.71365 18225 ft 406 kts 243°
2026-04-23 10:18 21.91964 -154.74014 17980 ft 404 kts 243°
2026-04-23 10:18 21.90592 -154.76654 17722 ft 403 kts 243°
2026-04-23 10:19 21.89224 -154.79286 17460 ft 402 kts 243°
2026-04-23 10:19 21.87859 -154.81911 17207 ft 401 kts 243°
2026-04-23 10:19 21.86514 -154.84493 16948 ft 389 kts 243°
2026-04-23 10:19 21.85207 -154.86993 16680 ft 378 kts 243°
2026-04-23 10:20 21.83933 -154.89424 16411 ft 367 kts 243°
2026-04-23 10:20 21.82693 -154.91784 16136 ft 358 kts 243°
2026-04-23 10:20 21.81478 -154.94090 15861 ft 349 kts 243°
2026-04-23 10:20 21.80292 -154.96335 15589 ft 341 kts 243°
2026-04-23 10:21 21.79144 -154.98500 15314 ft 333 kts 243°
2026-04-23 10:21 21.78006 -155.00640 15067 ft 326 kts 243°
2026-04-23 10:21 21.76890 -155.02732 14822 ft 320 kts 243°
2026-04-23 10:21 21.75784 -155.04800 14579 ft 317 kts 243°
2026-04-23 10:22 21.74674 -155.06853 14342 ft 318 kts 240°
2026-04-23 10:22 21.73468 -155.08853 14104 ft 320 kts 239°
2026-04-23 10:22 21.72227 -155.10845 13872 ft 320 kts 239°
2026-04-23 10:22 21.70976 -155.12834 13615 ft 319 kts 238°
2026-04-23 10:23 21.69730 -155.14811 13358 ft 318 kts 238°
2026-04-23 10:23 21.68493 -155.16778 13095 ft 317 kts 238°
2026-04-23 10:23 21.67277 -155.18717 12851 ft 315 kts 238°
2026-04-23 10:23 21.66042 -155.20663 12606 ft 314 kts 238°
2026-04-23 10:24 21.64798 -155.22591 12352 ft 313 kts 237°
2026-04-23 10:24 21.63553 -155.24515 12102 ft 312 kts 237°
2026-04-23 10:24 21.62315 -155.26432 11862 ft 311 kts 237°
2026-04-23 10:24 21.61086 -155.28335 11617 ft 309 kts 237°
2026-04-23 10:25 21.59873 -155.30239 11379 ft 308 kts 238°
2026-04-23 10:25 21.58684 -155.32149 11198 ft 307 kts 238°
2026-04-23 10:25 21.57508 -155.34055 11008 ft 306 kts 238°
2026-04-23 10:25 21.56339 -155.35957 10821 ft 305 kts 238°
2026-04-23 10:26 21.55173 -155.37859 10630 ft 304 kts 238°
2026-04-23 10:26 21.54013 -155.39753 10446 ft 303 kts 238°
2026-04-23 10:26 21.52871 -155.41620 10265 ft 302 kts 238°
2026-04-23 10:26 21.51715 -155.43512 10078 ft 302 kts 238°
2026-04-23 10:27 21.50565 -155.45395 9887 ft 301 kts 238°
2026-04-23 10:27 21.49418 -155.47275 9684 ft 300 kts 238°
2026-04-23 10:27 21.48273 -155.49154 9480 ft 300 kts 238°
2026-04-23 10:27 21.47159 -155.51036 9278 ft 298 kts 241°
2026-04-23 10:28 21.46119 -155.52965 9074 ft 296 kts 242°
2026-04-23 10:28 21.45125 -155.54861 8986 ft 293 kts 242°
2026-04-23 10:28 21.44126 -155.56771 8984 ft 295 kts 242°
2026-04-23 10:28 21.43127 -155.58697 8989 ft 295 kts 243°
2026-04-23 10:29 21.42161 -155.60650 8992 ft 296 kts 244°
2026-04-23 10:29 21.41206 -155.62622 8994 ft 297 kts 244°
2026-04-23 10:29 21.40259 -155.64593 8999 ft 297 kts 244°
2026-04-23 10:29 21.39319 -155.66563 8993 ft 297 kts 244°
2026-04-23 10:30 21.38378 -155.68535 8992 ft 298 kts 245°
2026-04-23 10:30 21.37427 -155.70516 8995 ft 298 kts 244°
2026-04-23 10:30 21.36486 -155.72486 8996 ft 296 kts 244°
2026-04-23 10:30 21.35544 -155.74458 8996 ft 297 kts 245°
2026-04-23 10:31 21.34598 -155.76432 8994 ft 297 kts 244°
2026-04-23 10:31 21.33654 -155.78402 8992 ft 296 kts 244°
2026-04-23 10:31 21.32827 -155.80386 8987 ft 296 kts 252°
2026-04-23 10:31 21.32232 -155.82490 9015 ft 291 kts 256°
2026-04-23 10:32 21.31482 -155.84520 9011 ft 295 kts 245°
2026-04-23 10:32 21.30506 -155.86457 9012 ft 295 kts 242°
2026-04-23 10:32 21.29491 -155.88367 9002 ft 293 kts 242°
2026-04-23 10:32 21.28475 -155.90243 8993 ft 288 kts 241°
2026-04-23 10:33 21.27474 -155.92090 8997 ft 286 kts 241°
2026-04-23 10:33 21.26482 -155.93933 8995 ft 285 kts 241°
2026-04-23 10:33 21.25489 -155.95779 8996 ft 286 kts 242°
2026-04-23 10:33 21.24493 -155.97623 8995 ft 285 kts 241°
2026-04-23 10:34 21.23509 -155.99458 8991 ft 282 kts 241°
2026-04-23 10:34 21.22540 -156.01268 8991 ft 285 kts 242°
2026-04-23 10:34 21.21546 -156.03117 8992 ft 286 kts 242°
2026-04-23 10:34 21.20683 -156.05030 8992 ft 284 kts 248°
2026-04-23 10:35 21.19907 -156.06965 8989 ft 281 kts 248°
2026-04-23 10:35 21.19404 -156.08221 8984 ft 272 kts 248°
2026-04-23 10:35 21.18310 -156.10628 8972 ft 265 kts 244°
2026-04-23 10:35 21.17692 -156.11748 8966 ft 265 kts 235°
2026-04-23 10:36 21.16382 -156.13128 8981 ft 265 kts 220°
2026-04-23 10:36 21.14919 -156.14346 8963 ft 268 kts 217°
2026-04-23 10:36 21.13398 -156.15534 8738 ft 269 kts 216°
2026-04-23 10:36 21.11906 -156.16691 8489 ft 263 kts 216°
2026-04-23 10:37 21.10420 -156.17845 8239 ft 264 kts 216°
2026-04-23 10:37 21.08940 -156.18994 7988 ft 262 kts 216°
2026-04-23 10:37 21.07488 -156.20127 7759 ft 253 kts 216°
2026-04-23 10:37 21.06097 -156.21217 7515 ft 250 kts 216°
2026-04-23 10:38 21.04696 -156.22318 7283 ft 246 kts 216°
2026-04-23 10:38 21.03324 -156.23400 7039 ft 244 kts 216°
2026-04-23 10:38 21.01960 -156.24480 6808 ft 243 kts 216°
2026-04-23 10:38 21.00605 -156.25556 6576 ft 242 kts 216°
2026-04-23 10:39 20.99288 -156.26608 6325 ft 237 kts 216°
2026-04-23 10:39 20.97966 -156.27657 6094 ft 237 kts 215°
2026-04-23 10:39 20.96634 -156.28700 5905 ft 237 kts 215°
2026-04-23 10:39 20.95305 -156.29746 5734 ft 237 kts 215°
2026-04-23 10:40 20.93975 -156.30794 5567 ft 237 kts 215°
2026-04-23 10:40 20.92647 -156.31843 5332 ft 239 kts 215°
2026-04-23 10:40 20.91313 -156.32909 5110 ft 240 kts 216°
2026-04-23 10:40 20.89989 -156.33955 4999 ft 231 kts 214°
2026-04-23 10:41 20.88669 -156.34945 4931 ft 235 kts 213°
2026-04-23 10:41 20.87343 -156.35935 4847 ft 228 kts 213°
2026-04-23 10:41 20.86049 -156.36907 4753 ft 227 kts 214°
2026-04-23 10:41 20.84763 -156.37870 4642 ft 224 kts 213°
2026-04-23 10:42 20.83465 -156.38790 4528 ft 224 kts 210°
2026-04-23 10:42 20.82128 -156.39658 4434 ft 225 kts 210°
2026-04-23 10:42 20.80816 -156.40525 4331 ft 224 kts 211°
2026-04-23 10:42 20.79520 -156.41451 4158 ft 220 kts 212°
2026-04-23 10:43 20.78283 -156.42344 3987 ft 212 kts 213°
2026-04-23 10:43 20.77097 -156.43243 3983 ft 209 kts 214°
2026-04-23 10:43 20.75907 -156.44173 3986 ft 212 kts 214°
2026-04-23 10:43 20.74717 -156.45101 3982 ft 211 kts 214°
2026-04-23 10:44 20.73520 -156.46028 3988 ft 215 kts 214°
2026-04-23 10:44 20.72292 -156.46944 3990 ft 215 kts 212°
2026-04-23 10:44 20.71035 -156.47816 3991 ft 214 kts 211°
2026-04-23 10:44 20.69846 -156.48753 3991 ft 214 kts 214°
2026-04-23 10:45 20.68644 -156.49680 3989 ft 215 kts 214°
2026-04-23 10:45 20.67542 -156.50768 3974 ft 217 kts 227°
2026-04-23 10:45 20.66683 -156.52096 3975 ft 217 kts 240°
2026-04-23 10:45 20.66326 -156.53636 3946 ft 216 kts 278°
2026-04-23 10:46 20.66939 -156.55051 3978 ft 211 kts 308°
2026-04-23 10:46 20.67853 -156.56285 3981 ft 211 kts 317°
2026-04-23 10:46 20.69089 -156.57075 3878 ft 205 kts 346°
2026-04-23 10:46 20.70489 -156.57090 3643 ft 205 kts 13°
2026-04-23 10:47 20.71689 -156.56388 3513 ft 189 kts 34°
2026-04-23 10:47 20.72792 -156.55698 3474 ft 185 kts 33°
2026-04-23 10:47 20.73870 -156.54984 3386 ft 181 kts 35°
2026-04-23 10:47 20.74912 -156.54270 3284 ft 171 kts 35°
2026-04-23 10:48 20.75860 -156.53586 3065 ft 159 kts 38°
2026-04-23 10:48 20.76750 -156.52891 2785 ft 160 kts 39°
2026-04-23 10:48 20.77640 -156.52140 2482 ft 164 kts 37°
2026-04-23 10:48 20.78555 -156.51434 2308 ft 160 kts 38°
2026-04-23 10:49 20.79442 -156.50717 2124 ft 160 kts 38°
2026-04-23 10:49 20.80324 -156.49996 1933 ft 160 kts 34°
2026-04-23 10:49 20.81220 -156.49330 1765 ft 159 kts 34°
2026-04-23 10:49 20.82121 -156.48657 1607 ft 159 kts 34°
2026-04-23 10:50 20.83023 -156.47983 1443 ft 157 kts 33°
2026-04-23 10:50 20.83928 -156.47344 1264 ft 154 kts 32°
2026-04-23 10:50 20.84815 -156.46684 1045 ft 158 kts 34°
2026-04-23 10:50 20.85715 -156.46031 852 ft 155 kts 31°
2026-04-23 10:51 20.86587 -156.45386 633 ft 151 kts 32°
2026-04-23 10:51 20.87425 -156.44739 501 ft 148 kts 33°
2026-04-23 10:51 20.88246 -156.44139 245 ft 138 kts 32°
2026-04-23 10:51 20.89030 -156.43550 95 ft 137 kts 34°
2026-04-23 10:52 20.89749 -156.43024 49 ft 107 kts 34°
2026-04-23 10:52 20.90108 -156.42747 49 ft 34 kts 35°
2026-04-23 10:52 20.90303 -156.42603 45 ft 34 kts 34°
2026-04-23 10:52 20.90459 -156.42515 47 ft 13 kts 347°
2026-04-23 10:53 20.90480 -156.42558 44 ft 6 kts 268°
2026-04-23 10:53 20.90458 -156.42622 45 ft 10 kts 240°
2026-04-23 10:53 20.90407 -156.42681 47 ft 11 kts 218°
2026-04-23 10:53 20.90340 -156.42732 43 ft 12 kts 214°
2026-04-23 10:54 20.90266 -156.42786 49 ft 14 kts 213°
2026-04-23 10:54 20.90173 -156.42857 49 ft 19 kts 214°
2026-04-23 10:54 20.90062 -156.42938 45 ft 19 kts 215°
2026-04-23 10:54 20.89952 -156.43021 48 ft 19 kts 214°
2026-04-23 10:55 20.89841 -156.43104 50 ft 21 kts 215°
2026-04-23 10:55 20.89727 -156.43189 44 ft 16 kts 214°
2026-04-23 10:55 20.89640 -156.43255 47 ft 12 kts 226°
2026-04-23 10:55 20.89639 -156.43325 46 ft 9 kts 292°
2026-04-23 10:56 20.89667 -156.43372 45 ft 2 kts 304°
2026-04-23 10:56 20.89671 -156.43379 44 ft 0 kts 305°
2026-04-23 10:56 20.89672 -156.43380 44 ft 0 kts 305°
2026-04-23 10:57 20.89672 -156.43381 45 ft 0 kts 305°